Regional Weather Roundup
Issued by NWS

Home | Current Version | Previous Version | Text Only | Print | Product List | Glossary Off
Versions: 1 2 3 4 5 6 7 8 9 10 11 12 13 14 15 16 17 18 19 20 21 22 23 24 25 26 27 28 29 30 31 32 33 34 35 36 37 38 39 40 41 42 43 44 45 46 47 48 49 50

000
ASUS43 KMKX 011700
RWRWI

WISCONSIN REGIONAL WEATHER ROUNDUP
NATIONAL WEATHER SERVICE MILWAUKEE/SULLIVAN WI
1200 PM CDT FRI AUG 01 2014

NOTE: "FAIR" INDICATES FEW OR NO CLOUDS BELOW 12,000 FEET WITH NO
SIGNIFICANT WEATHER AND/OR OBSTRUCTIONS TO VISIBILITY.

WIZ001-002-006>008-014>016-023>028-011800-
NORTHWEST WISCONSIN

CITY           SKY/WX    TMP DP  RH WIND       PRES   REMARKS
SUPERIOR ARPT  SUNNY     67  55  65 E6        30.07F
ASHLAND        SUNNY     74  59  59 N5        30.08S
HAYWARD        SUNNY     76  52  43 NE6       30.08S
SIREN          SUNNY     76  60  58 N5        30.07S
RICE LAKE      SUNNY     75  61  61 CALM      30.08S
LADYSMITH      SUNNY     74  61  63 CALM      30.09S
EAU CLAIRE     NOT AVBL
MENOMONIE      SUNNY     79  62  57 CALM      30.06S HX  80
NEW RICHMOND   SUNNY     78  60  53 NW5       30.07S HX  80
OSCEOLA        SUNNY     78  61  56 NW3       30.09S
$$

WIZ003>005-009-010-017-018-011800-
NORTH CENTRAL WISCONSIN

CITY           SKY/WX    TMP DP  RH WIND       PRES   REMARKS
WOODRUFF       SUNNY     77  54  44 NW5       30.09S
RHINELANDER    SUNNY     75  52  44 NW3       30.09S
EAGLE RIVER    SUNNY     72  48  42 NW8       30.09R
LAND O LAKES   SUNNY     73  48  41 N6        30.09F
PHILLIPS       MOSUNNY   74  56  52 N5        30.08S
TOMAHAWK       SUNNY     74  57  54 CALM      30.08S
MEDFORD        MOSUNNY   73  63  69 CALM      30.08S
MERRILL        SUNNY     76  60  57 CALM      30.07S
$$

WIZ029-030-035-036-043>047-011800-
CENTRAL WISCONSIN

CITY           SKY/WX    TMP DP  RH WIND       PRES   REMARKS
WAUSAU         MOSUNNY   77  63  61 SW6       30.05F
MOSINEE        MOSUNNY   73  64  73 SW6       30.09R
MARSHFIELD     MOSUNNY   75  63  66 CALM      30.08R
STEVENS POINT  PTSUNNY   74  60  62 SW3       30.07F
WAUPACA        PTSUNNY   82  61  49 SW6       30.06S HX  82
WAUTOMA        NOT AVBL
WISC RAPIDS    PTSUNNY   72  63  73 W6        30.09S
CAMP DOUGLAS   NOT AVBL
$$

WIZ011>013-019>022-031-037>040-048>050-011800-
NORTHEAST WISCONSIN

CITY           SKY/WX    TMP DP  RH WIND       PRES   REMARKS
ANTIGO         MOSUNNY   75  58  54 N8        30.08S
STURGEON BAY   MOSUNNY   75  64  69 SE5       30.06S
GREEN BAY      SUNNY     78  65  63 VRB3      30.05S HX  80
MANITOWOC      NOT AVBL
APPLETON       SUNNY     75  63  64 SW5       30.07
CLINTONVILLE   SUNNY     77  61  57 NW6       30.06S
OSHKOSH        SUNNY     77  64  64 SW6       30.06S
$$

WIZ032>034-041-042-053>061-011800-
SOUTHWEST WISCONSIN

CITY           SKY/WX    TMP DP  RH WIND       PRES   REMARKS
LA CROSSE      SUNNY     80  62  54 CALM      30.07S HX  81
SPARTA         SUNNY     78  60  54 NW5       30.08F HX  80
VIROQUA        FAIR      77  60  54 NW3       30.10S
BOSCOBEL       SUNNY     83  59  44 W6        30.08S HX  83
PRAIRIE DU CHI MOSUNNY   80  49  34 S5        30.08S
PLATTEVILLE    FAIR      78  57  47 W5        30.11S
$$

WIZ056-057-062-063-064-067-068-011800-
SOUTH CENTRAL WISCONSIN

CITY           SKY/WX    TMP DP  RH WIND       PRES   REMARKS
BARABOO/DELLS  SUNNY     80  54  40 NW6       30.09R HX  80
LONE ROCK      NOT AVBL
WATERTOWN      SUNNY     78  62  57 W8        30.08S
MADISON        MOSUNNY   81  59  47 SW8       30.08S HX  81
MIDDLETON      FAIR      81  57  44 W9        30.09S HX  81
MONROE         PTSUNNY   79  57  47 NW5       30.10S HX  80
JANESVILLE     NOT AVBL
$$

WIZ051-052-058>065-066-070>072-011800-
SOUTHEAST WISCONSIN

CITY           SKY/WX    TMP DP  RH WIND       PRES   REMARKS
MILWAUKEE      MOSUNNY   80  55  42 W12       30.08S HX  80
WAUKESHA       MOSUNNY   73  57  56 W8        30.10S
MILWAUKEE/TIMM NOT AVBL
RACINE         MOSUNNY   80  58  46 W7        30.10S HX  80
BURLINGTON     SUNNY     78  58  50 NW3       30.09S
KENOSHA        MOSUNNY   80  62  54 W8        30.09F HX  81
FOND DU LAC    SUNNY     80  60  50 W9        30.07S HX  81
SHEBOYGAN      PTSUNNY   79  60  52 W9        30.07S HX  80
WEST BEND      SUNNY     79  57  47 W5        30.08S HX  80
JUNEAU         SUNNY     77  58  52 SW7       30.09S
$$

LSZ147-162-011800-
LAKE SUPERIOR

STATION/POSITION TIME  TEMP    WIND        PRES    WAVE
                       AIR SEA DIR/SP/G            HT/PER
                 (UTC) (F)     (DEG/KT/KT) (MB)    (FT/S)
W MID LAKE BUOY  1550   47 44   50/  6/  6 1018.6R   0
PORT WING        1640   62      20/  4/  5 1018.6R
SAXON HARBOR     1600           CALM  /  2 1018.6
$$

LMZ867-665-643>646-011800-
LAKE MICHIGAN

STATION/POSITION TIME  TEMP    WIND        PRES    WAVE
                       AIR SEA DIR/SP/G            HT/PER
                 (UTC) (F)     (DEG/KT/KT) (MB)    (FT/S)
N MID LAKE BUOY  1550   58 57  150/  4/  4 1017.7R   1
NORTHPORT PIER   1600   65     120/  5/  7 1017.6S
SISTER BAY       1611   79     170/ 10/ 14   N/A
ALGOMA LAKESHORE 1506             CALM       N/A
KEWAUNEE LAKESHO 1600   65      90/  2/  3 1017.1R
SHEBOYGAN LAKESH 1600   74     170/  5/  6 1017.9R
PORT WASHINGTON  1600   71     180/  5/  8 1018.6S
ATWATER BUOY     1600   69     110/  6     1019.3F
MILWAUKEE LAKESH 1600   78     270/  2/  5   N/A
S MID LAKE BUOY  1550   65 63  240/  8/  8 1019.2R   0
KENOSHA   LAKESH 1600   76     140/  1/  4 1018.3S
$$

TC  - TEMPERATURE IN CELSIUS
VSB - VISIBILITY IN STATUTE MILES
WCI - WIND CHILL INDEX
HX  - HEAT INDEX



USA.gov is the U.S. government's official web portal to all federal, state and local government web resources and services.